Погода в Пахтакоре

Узбекистан     40°18′38″N   67°57′21″E
темп.,
°C
ветер,
м/с
пор.,
м/с
влажн.,
%
обл.,
%
осадки,
мм/ч
давл.,
гПа
погр.,
м
27 февраля, сб
сб2723:00−4юв236581 0.0 1029119
02:00−3юв2363100 0.0 1028114
05:00−2юв3362100 0.1 102880
08:00−2юв2267100 0.3 102870
11:00+3ююз3442100 0.3 1029567
14:00+5юв334570 0.0 1027740
17:00+5юв674642 0.0 1027515
20:00+1юв45550 0.0 102995
28 февраля, вс
вс2823:00+1вюв49510 0.0 1029240
02:000вюв512470 0.0 1027273
05:000вюв45540 0.0 1026102
08:00+1вюв47500 0.0 1024184
11:00+6вюв34360 0.0 1022478
14:00+10вюв45330 0.0 1019640
17:00+10вюв45350 0.0 1019586
20:00+6вюв474933 0.0 1020143
1 марта, пн
пн123:00+5вюв235266 0.0 102149
02:00+5вюв2351100 0.0 102132
05:00+4вюв2349100 0.0 102029
08:00+6вюв2346100 0.0 102126
11:00+12вюв232966 0.0 1019266
14:00+17в33190 0.0 1018500
17:00+16вюв68260 0.0 1018302
20:00+11вюв34400 0.0 102045
2 марта, вт
вт223:00+11ю113817 0.0 102123
02:00+11ююз2235100 0.0 102123
05:00+10з1236100 0.0 102122
08:00+10сз2340100 0.0 102230
11:00+13сз3432100 0.0 1021432
14:00+16сз3327100 0.0 1020792
17:00+15сз4532100 0.0 1020546
20:00+12сз2239100 0.0 102239
3 марта, ср
ср323:00+11юв1141100 0.0 102223
02:00+10ссз3346100 0.0 102148
05:00+9вюв3350100 0.0 102170
08:00+8ссз3473100 0.0 1021156
11:00+9сз2268100 0.1 1021278
14:00+11ссз0056100 0.0 1019778
17:00+10всв4473100 0.1 1019470
20:00+8вюв488587 0.1 1019355